Location: Noverd
(38.0910°N, 121.6877°W)
Time: 14:10:10
(UTC+00:00)

Envisat - Pass Details

Date: 14 April 2026
Orbit: 761 x 762 km, 98.4° (Epoch: 15 May)

Event Time Altitude Azimuth Distance (km) Brightness Sun altitude
Rises 12:00:16 0° 355° (N) 3,231 6.5 -17.8°
Reaches altitude 10° 12:03:17 10° 336° (NNW) 2,300 5.5 -17.3°
Maximum altitude 12:06:32 17° 296° (WNW) 1,833 4.6 -16.7°
Enters shadow 12:07:07 17° 287° (WNW) 1,849 4.6 -16.6°
